Time,TemperatureF,DewpointF,PressureIn,WindDirection,WindDirectionDegrees,WindSpeedMPH,WindSpeedGustMPH,Humidity,HourlyPrecipIn,Conditions,Clouds,dailyrainin,SoftwareType,DateUTC
2013-08-07 00:02:00,57.7,54.5,30.13,ENE,76,0.0,0.0,89,0.00,,,0.00,meteohub,2013-08-07 04:02:00,
2013-08-07 00:07:00,57.6,54.3,30.13,ENE,76,0.0,0.0,89,0.00,,,0.00,meteohub,2013-08-07 04:07:00,
2013-08-07 00:12:00,57.4,54.1,30.13,ENE,76,0.0,0.0,89,0.00,,,0.00,meteohub,2013-08-07 04:12:00,
2013-08-07 00:17:00,57.4,54.1,30.13,ENE,76,0.0,0.0,89,0.00,,,0.00,meteohub,2013-08-07 04:17:00,
2013-08-07 00:22:00,57.4,54.1,30.13,ENE,76,0.0,0.0,89,0.00,,,0.00,meteohub,2013-08-07 04:22:00,
2013-08-07 00:27:00,57.4,54.1,30.13,ENE,76,0.0,0.0,89,0.00,,,0.00,meteohub,2013-08-07 04:27:00,
2013-08-07 00:32:00,57.4,54.1,30.13,ENE,76,0.0,0.0,89,0.00,,,0.00,meteohub,2013-08-07 04:32:00,
2013-08-07 00:37:00,57.0,54.1,30.13,ENE,76,0.0,0.0,90,0.00,,,0.00,meteohub,2013-08-07 04:37:00,
2013-08-07 00:42:00,56.8,54.0,30.13,ENE,76,0.0,1.0,90,0.00,,,0.00,meteohub,2013-08-07 04:42:00,
2013-08-07 00:47:00,56.7,53.8,30.14,ENE,76,0.0,1.0,90,0.00,,,0.00,meteohub,2013-08-07 04:47:00,
2013-08-07 00:52:00,56.5,54.0,30.13,ENE,76,0.0,1.0,91,0.00,,,0.00,meteohub,2013-08-07 04:52:00,
2013-08-07 00:57:00,56.5,54.0,30.13,ENE,76,0.0,0.0,91,0.00,,,0.00,meteohub,2013-08-07 04:57:00,
2013-08-07 01:02:00,56.5,54.0,30.13,ENE,76,0.0,0.0,91,0.00,,,0.00,meteohub,2013-08-07 05:02:00,
2013-08-07 01:07:00,56.5,54.1,30.13,ENE,76,0.0,0.0,92,0.00,,,0.00,meteohub,2013-08-07 05:07:00,
2013-08-07 01:12:00,56.7,54.1,30.13,ENE,76,0.0,0.0,91,0.00,,,0.00,meteohub,2013-08-07 05:12:00,
2013-08-07 01:17:00,56.5,54.0,30.13,ENE,76,0.0,0.0,91,0.00,,,0.00,meteohub,2013-08-07 05:17:00,
2013-08-07 01:22:00,56.5,54.0,30.13,ENE,76,0.0,0.0,91,0.00,,,0.00,meteohub,2013-08-07 05:22:00,
2013-08-07 01:27:00,56.3,54.0,30.13,ENE,76,0.0,0.0,92,0.00,,,0.00,meteohub,2013-08-07 05:27:00,
2013-08-07 01:32:00,56.1,53.8,30.13,ENE,76,0.0,0.0,92,0.00,,,0.00,meteohub,2013-08-07 05:32:00,
2013-08-07 01:37:00,55.9,53.6,30.13,ENE,76,0.0,0.0,92,0.00,,,0.00,meteohub,2013-08-07 05:37:00,
2013-08-07 01:42:00,55.9,53.6,30.14,ENE,76,0.0,0.0,92,0.00,,,0.00,meteohub,2013-08-07 05:42:00,
2013-08-07 01:47:00,55.9,53.6,30.14,ENE,76,0.0,0.0,92,0.00,,,0.00,meteohub,2013-08-07 05:47:00,
2013-08-07 01:52:00,55.9,53.6,30.14,ENE,76,0.0,0.0,92,0.00,,,0.00,meteohub,2013-08-07 05:52:00,
2013-08-07 01:57:00,55.9,54.0,30.14,ENE,76,0.0,0.0,93,0.00,,,0.00,meteohub,2013-08-07 05:57:00,
2013-08-07 02:02:00,56.1,54.1,30.14,ENE,76,0.0,0.0,93,0.00,,,0.00,meteohub,2013-08-07 06:02:00,
2013-08-07 02:07:00,56.1,53.8,30.14,ENE,76,0.0,0.0,92,0.00,,,0.00,meteohub,2013-08-07 06:07:00,
2013-08-07 02:12:00,56.3,54.0,30.14,ENE,76,0.0,0.0,92,0.00,,,0.00,meteohub,2013-08-07 06:12:00,
2013-08-07 02:17:00,56.1,53.8,30.14,ENE,76,0.0,0.0,92,0.00,,,0.00,meteohub,2013-08-07 06:17:00,
2013-08-07 02:22:00,56.1,53.8,30.14,ENE,76,0.0,0.0,92,0.00,,,0.00,meteohub,2013-08-07 06:22:00,
2013-08-07 02:27:00,56.1,53.8,30.14,ENE,76,0.0,0.0,92,0.00,,,0.00,meteohub,2013-08-07 06:27:00,
2013-08-07 02:32:00,56.1,53.8,30.14,ENE,76,0.0,0.0,92,0.00,,,0.00,meteohub,2013-08-07 06:32:00,
2013-08-07 02:37:00,55.8,53.4,30.15,ENE,76,0.0,0.0,92,0.00,,,0.00,meteohub,2013-08-07 06:37:00,
2013-08-07 02:42:00,55.6,53.2,30.15,ENE,76,0.0,0.0,92,0.00,,,0.00,meteohub,2013-08-07 06:42:00,
2013-08-07 02:47:00,55.4,53.1,30.15,ENE,76,0.0,0.0,92,0.00,,,0.00,meteohub,2013-08-07 06:47:00,
2013-08-07 02:52:00,55.4,53.1,30.15,ENE,76,0.0,0.0,92,0.00,,,0.00,meteohub,2013-08-07 06:52:00,
2013-08-07 02:57:00,55.6,53.2,30.14,ENE,76,0.0,0.0,92,0.00,,,0.00,meteohub,2013-08-07 06:57:00,
2013-08-07 03:02:00,55.8,53.8,30.14,ENE,76,0.0,0.0,93,0.00,,,0.00,meteohub,2013-08-07 07:02:00,
2013-08-07 03:07:00,55.8,53.8,30.14,ENE,76,0.0,0.0,93,0.00,,,0.00,meteohub,2013-08-07 07:07:00,
2013-08-07 03:12:00,55.8,53.8,30.14,ENE,76,0.0,0.0,93,0.00,,,0.00,meteohub,2013-08-07 07:12:00,
2013-08-07 03:17:00,55.8,53.8,30.14,ENE,76,0.0,0.0,93,0.00,,,0.00,meteohub,2013-08-07 07:17:00,
2013-08-07 03:22:00,55.6,53.6,30.14,ENE,76,0.0,0.0,93,0.00,,,0.00,meteohub,2013-08-07 07:22:00,
2013-08-07 03:27:00,55.4,53.4,30.14,ENE,76,0.0,0.0,93,0.00,,,0.00,meteohub,2013-08-07 07:27:00,
2013-08-07 03:32:00,55.2,53.2,30.14,ENE,76,0.0,0.0,93,0.00,,,0.00,meteohub,2013-08-07 07:32:00,
2013-08-07 03:37:00,55.0,53.1,30.14,ENE,76,0.0,0.0,93,0.00,,,0.00,meteohub,2013-08-07 07:37:00,
2013-08-07 03:42:00,55.0,53.1,30.14,ENE,76,0.0,0.0,93,0.00,,,0.00,meteohub,2013-08-07 07:42:00,
2013-08-07 03:47:00,55.0,53.1,30.15,ENE,76,0.0,0.0,93,0.00,,,0.00,meteohub,2013-08-07 07:47:00,
2013-08-07 03:52:00,55.0,53.1,30.15,ENE,76,0.0,0.0,93,0.00,,,0.00,meteohub,2013-08-07 07:52:00,
2013-08-07 03:57:00,55.0,53.1,30.15,ENE,76,0.0,0.0,93,0.00,,,0.00,meteohub,2013-08-07 07:57:00,
2013-08-07 04:02:00,55.0,53.1,30.15,ENE,76,0.0,0.0,93,0.00,,,0.00,meteohub,2013-08-07 08:02:00,
2013-08-07 04:07:00,54.9,52.9,30.15,ENE,76,0.0,0.0,93,0.00,,,0.00,meteohub,2013-08-07 08:07:00,
2013-08-07 04:12:00,54.9,52.9,30.15,ENE,76,0.0,0.0,93,0.00,,,0.00,meteohub,2013-08-07 08:12:00,
2013-08-07 04:17:00,54.9,53.2,30.15,ENE,76,0.0,0.0,94,0.00,,,0.00,meteohub,2013-08-07 08:17:00,
2013-08-07 04:22:00,54.9,53.2,30.15,ENE,76,0.0,0.0,94,0.00,,,0.00,meteohub,2013-08-07 08:22:00,
2013-08-07 04:27:00,54.9,53.2,30.15,ENE,76,0.0,0.0,94,0.00,,,0.00,meteohub,2013-08-07 08:27:00,
2013-08-07 04:32:00,54.7,53.1,30.15,ENE,76,0.0,0.0,94,0.00,,,0.00,meteohub,2013-08-07 08:32:00,
2013-08-07 04:37:00,54.7,53.1,30.16,ENE,76,0.0,0.0,94,0.00,,,0.00,meteohub,2013-08-07 08:37:00,
2013-08-07 04:42:00,54.7,53.1,30.16,ENE,76,0.0,0.0,94,0.00,,,0.00,meteohub,2013-08-07 08:42:00,
2013-08-07 04:47:00,54.9,53.2,30.15,ENE,76,0.0,0.0,94,0.00,,,0.00,meteohub,2013-08-07 08:47:00,
2013-08-07 04:52:00,54.9,53.2,30.15,ENE,76,0.0,0.0,94,0.00,,,0.00,meteohub,2013-08-07 08:52:00,
2013-08-07 04:57:00,54.7,53.1,30.16,ENE,76,0.0,0.0,94,0.00,,,0.00,meteohub,2013-08-07 08:57:00,
2013-08-07 05:02:00,54.7,53.1,30.16,ENE,76,0.0,0.0,94,0.00,,,0.00,meteohub,2013-08-07 09:02:00,
2013-08-07 05:07:00,54.7,53.1,30.16,ENE,76,0.0,0.0,94,0.00,,,0.00,meteohub,2013-08-07 09:07:00,
2013-08-07 05:12:00,54.5,52.9,30.16,ENE,76,0.0,0.0,94,0.00,,,0.00,meteohub,2013-08-07 09:12:00,
2013-08-07 05:17:00,54.5,52.9,30.16,ENE,76,0.0,0.0,94,0.00,,,0.00,meteohub,2013-08-07 09:17:00,
2013-08-07 05:22:00,54.7,53.1,30.16,ENE,76,0.0,0.0,94,0.00,,,0.00,meteohub,2013-08-07 09:22:00,
2013-08-07 05:27:00,54.5,52.9,30.16,ENE,76,0.0,0.0,94,0.00,,,0.00,meteohub,2013-08-07 09:27:00,
2013-08-07 05:32:00,54.1,52.5,30.16,ENE,76,0.0,0.0,94,0.00,,,0.00,meteohub,2013-08-07 09:32:00,
2013-08-07 05:37:00,54.0,52.3,30.16,ENE,76,0.0,0.0,94,0.00,,,0.00,meteohub,2013-08-07 09:37:00,
2013-08-07 05:47:00,54.1,52.5,30.16,ENE,76,0.0,0.0,94,0.00,,,0.00,meteohub,2013-08-07 09:47:00,
2013-08-07 05:52:00,54.1,52.5,30.16,ENE,76,0.0,0.0,94,0.00,,,0.00,meteohub,2013-08-07 09:52:00,
2013-08-07 05:57:00,54.3,52.7,30.16,ENE,76,0.0,0.0,94,0.00,,,0.00,meteohub,2013-08-07 09:57:00,
2013-08-07 06:02:00,54.3,52.7,30.16,ENE,76,0.0,0.0,94,0.00,,,0.00,meteohub,2013-08-07 10:02:00,
2013-08-07 06:07:00,54.3,52.7,30.15,ENE,76,0.0,0.0,94,0.00,,,0.00,meteohub,2013-08-07 10:07:00,
2013-08-07 06:12:00,54.1,52.5,30.16,ENE,76,0.0,0.0,94,0.00,,,0.00,meteohub,2013-08-07 10:12:00,
2013-08-07 06:17:00,54.1,52.5,30.16,ENE,76,0.0,0.0,94,0.00,,,0.00,meteohub,2013-08-07 10:17:00,
2013-08-07 06:22:00,54.0,52.3,30.15,ENE,76,0.0,0.0,94,0.00,,,0.00,meteohub,2013-08-07 10:22:00,
2013-08-07 06:27:00,53.8,52.2,30.15,ENE,76,0.0,0.0,94,0.00,,,0.00,meteohub,2013-08-07 10:27:00,
2013-08-07 06:32:00,54.0,52.3,30.15,ENE,76,0.0,0.0,94,0.00,,,0.00,meteohub,2013-08-07 10:32:00,
2013-08-07 06:37:00,54.0,52.3,30.15,ENE,76,0.0,0.0,94,0.00,,,0.00,meteohub,2013-08-07 10:37:00,
2013-08-07 06:42:00,54.0,52.3,30.16,ENE,76,0.0,0.0,94,0.00,,,0.00,meteohub,2013-08-07 10:42:00,
2013-08-07 06:47:00,54.0,52.3,30.16,ENE,76,0.0,0.0,94,0.00,,,0.00,meteohub,2013-08-07 10:47:00,
2013-08-07 06:52:00,54.1,52.5,30.16,ENE,76,0.0,0.0,94,0.00,,,0.00,meteohub,2013-08-07 10:52:00,
2013-08-07 06:57:00,54.3,52.7,30.16,ENE,76,0.0,0.0,94,0.00,,,0.00,meteohub,2013-08-07 10:57:00,
2013-08-07 07:02:00,54.7,53.1,30.16,ENE,76,0.0,0.0,94,0.00,,,0.00,meteohub,2013-08-07 11:02:00,
2013-08-07 07:07:00,54.9,53.2,30.16,ENE,76,0.0,0.0,94,0.00,,,0.00,meteohub,2013-08-07 11:07:00,
2013-08-07 07:12:00,55.0,53.4,30.16,ENE,76,0.0,0.0,94,0.00,,,0.00,meteohub,2013-08-07 11:12:00,
2013-08-07 07:17:00,55.6,54.0,30.16,ENE,76,0.0,0.0,94,0.00,,,0.00,meteohub,2013-08-07 11:17:00,
2013-08-07 07:22:00,56.1,54.7,30.16,ENE,76,0.0,0.0,95,0.00,,,0.00,meteohub,2013-08-07 11:22:00,
2013-08-07 07:27:00,56.5,54.9,30.16,ENE,76,0.0,0.0,94,0.00,,,0.00,meteohub,2013-08-07 11:27:00,
2013-08-07 07:32:00,57.6,56.1,30.16,ENE,76,0.0,0.0,95,0.00,,,0.00,meteohub,2013-08-07 11:32:00,
2013-08-07 07:37:00,58.3,56.5,30.16,ENE,76,0.0,0.0,94,0.00,,,0.00,meteohub,2013-08-07 11:37:00,
2013-08-07 07:42:00,58.6,56.8,30.16,ENE,76,0.0,0.0,94,0.00,,,0.00,meteohub,2013-08-07 11:42:00,
2013-08-07 07:47:00,59.4,57.6,30.16,ENE,76,0.0,0.0,94,0.00,,,0.00,meteohub,2013-08-07 11:47:00,
2013-08-07 07:52:00,59.7,57.7,30.17,ENE,76,0.0,0.0,93,0.00,,,0.00,meteohub,2013-08-07 11:52:00,
2013-08-07 07:57:00,60.4,58.1,30.17,ENE,76,0.0,0.0,92,0.00,,,0.00,meteohub,2013-08-07 11:57:00,
2013-08-07 08:02:00,61.2,58.8,30.16,ENE,76,0.0,0.0,92,0.00,,,0.00,meteohub,2013-08-07 12:02:00,
2013-08-07 08:07:00,62.1,59.2,30.16,ENE,76,0.0,0.0,90,0.00,,,0.00,meteohub,2013-08-07 12:07:00,
2013-08-07 08:12:00,62.4,59.2,30.16,ENE,77,0.0,0.0,89,0.00,,,0.00,meteohub,2013-08-07 12:12:00,
2013-08-07 08:17:00,62.8,59.2,30.16,East,80,0.0,0.0,88,0.00,,,0.00,meteohub,2013-08-07 12:17:00,
2013-08-07 08:22:00,63.1,59.5,30.16,East,80,0.0,1.0,88,0.00,,,0.00,meteohub,2013-08-07 12:22:00,
2013-08-07 08:27:00,63.7,60.1,30.16,ENE,78,0.0,1.0,88,0.00,,,0.00,meteohub,2013-08-07 12:27:00,
2013-08-07 08:32:00,64.2,60.3,30.16,ENE,78,0.0,1.0,87,0.00,,,0.00,meteohub,2013-08-07 12:32:00,
2013-08-07 08:37:00,64.6,60.3,30.17,ENE,78,0.0,1.0,86,0.00,,,0.00,meteohub,2013-08-07 12:37:00,
2013-08-07 08:42:00,64.9,60.3,30.17,ENE,78,0.0,1.0,85,0.00,,,0.00,meteohub,2013-08-07 12:42:00,
2013-08-07 08:47:00,65.3,60.1,30.17,ENE,77,0.0,1.0,83,0.00,,,0.00,meteohub,2013-08-07 12:47:00,
2013-08-07 08:52:00,65.7,60.4,30.17,ENE,76,0.0,1.0,83,0.00,,,0.00,meteohub,2013-08-07 12:52:00,
2013-08-07 08:57:00,65.8,59.9,30.16,ENE,77,0.0,1.0,81,0.00,,,0.00,meteohub,2013-08-07 12:57:00,
2013-08-07 09:02:00,65.8,59.9,30.16,ENE,76,0.0,1.0,81,0.00,,,0.00,meteohub,2013-08-07 13:02:00,
2013-08-07 09:07:00,66.0,59.4,30.16,ENE,76,0.0,1.0,79,0.00,,,0.00,meteohub,2013-08-07 13:07:00,
2013-08-07 09:12:00,66.4,59.7,30.16,ENE,76,0.0,1.0,79,0.00,,,0.00,meteohub,2013-08-07 13:12:00,
2013-08-07 09:17:00,66.7,59.7,30.16,ENE,76,0.0,1.0,78,0.00,,,0.00,meteohub,2013-08-07 13:17:00,
2013-08-07 09:22:00,66.7,59.4,30.16,ENE,76,0.0,1.0,77,0.00,,,0.00,meteohub,2013-08-07 13:22:00,
2013-08-07 09:27:00,66.9,59.9,30.16,ENE,76,0.0,1.0,78,0.00,,,0.00,meteohub,2013-08-07 13:27:00,
2013-08-07 09:32:00,66.9,59.9,30.16,ENE,76,0.0,1.0,78,0.00,,,0.00,meteohub,2013-08-07 13:32:00,
2013-08-07 09:37:00,67.6,59.4,30.16,ESE,107,0.0,1.0,75,0.00,,,0.00,meteohub,2013-08-07 13:37:00,
2013-08-07 09:42:00,68.2,59.2,30.16,ENE,74,0.0,1.0,73,0.00,,,0.00,meteohub,2013-08-07 13:42:00,
2013-08-07 09:47:00,68.5,58.3,30.16,South,169,0.0,2.0,70,0.00,,,0.00,meteohub,2013-08-07 13:47:00,
2013-08-07 09:52:00,69.1,58.5,30.16,SE,134,0.0,2.0,69,0.00,,,0.00,meteohub,2013-08-07 13:52:00,
2013-08-07 09:57:00,69.4,58.5,30.16,ESE,121,1.0,2.0,68,0.00,,,0.00,meteohub,2013-08-07 13:57:00,
2013-08-07 10:02:00,69.4,57.2,30.16,SE,144,1.0,3.0,65,0.00,,,0.00,meteohub,2013-08-07 14:02:00,
2013-08-07 10:07:00,69.3,57.4,30.16,SE,133,0.0,3.0,66,0.00,,,0.00,meteohub,2013-08-07 14:07:00,
2013-08-07 10:12:00,70.0,58.5,30.16,SE,132,0.0,3.0,67,0.00,,,0.00,meteohub,2013-08-07 14:12:00,
2013-08-07 10:17:00,70.3,58.5,30.15,SSW,194,1.0,4.0,66,0.00,,,0.00,meteohub,2013-08-07 14:17:00,
2013-08-07 10:22:00,71.8,58.1,30.15,West,278,0.0,4.0,62,0.00,,,0.00,meteohub,2013-08-07 14:22:00,
2013-08-07 10:27:00,72.3,58.1,30.15,SE,129,2.0,4.0,61,0.00,,,0.00,meteohub,2013-08-07 14:27:00,
2013-08-07 10:32:00,73.6,56.8,30.15,SW,214,0.0,3.0,56,0.00,,,0.00,meteohub,2013-08-07 14:32:00,
2013-08-07 10:37:00,74.7,56.8,30.15,West,260,2.0,3.0,54,0.00,,,0.00,meteohub,2013-08-07 14:37:00,
2013-08-07 10:42:00,73.4,55.8,30.15,ESE,117,0.0,3.0,54,0.00,,,0.00,meteohub,2013-08-07 14:42:00,
2013-08-07 10:47:00,74.3,59.0,30.15,NNW,341,0.0,3.0,59,0.00,,,0.00,meteohub,2013-08-07 14:47:00,
2013-08-07 10:52:00,73.8,56.1,30.16,ESE,110,1.0,3.0,54,0.00,,,0.00,meteohub,2013-08-07 14:52:00,
2013-08-07 10:57:00,72.7,55.6,30.16,ESE,115,0.0,3.0,55,0.00,,,0.00,meteohub,2013-08-07 14:57:00,
2013-08-07 11:02:00,73.2,54.5,30.15,SSE,156,0.0,2.0,52,0.00,,,0.00,meteohub,2013-08-07 15:02:00,
2013-08-07 11:07:00,73.2,55.6,30.16,SW,214,1.0,2.0,54,0.00,,,0.00,meteohub,2013-08-07 15:07:00,
2013-08-07 11:12:00,75.0,54.0,30.15,North,0,0.0,3.0,48,0.00,,,0.00,meteohub,2013-08-07 15:12:00,
2013-08-07 11:17:00,74.1,53.8,30.15,ESE,105,1.0,3.0,49,0.00,,,0.00,meteohub,2013-08-07 15:17:00,
2013-08-07 11:22:00,73.0,54.9,30.15,ESE,117,0.0,6.0,53,0.00,,,0.00,meteohub,2013-08-07 15:22:00,
2013-08-07 11:27:00,76.3,54.5,30.15,ENE,77,1.0,6.0,47,0.00,,,0.00,meteohub,2013-08-07 15:27:00,
2013-08-07 11:32:00,76.3,55.8,30.15,ENE,70,0.0,3.0,49,0.00,,,0.00,meteohub,2013-08-07 15:32:00,
2013-08-07 11:37:00,78.1,56.3,30.15,ESE,113,0.0,2.0,47,0.00,,,0.00,meteohub,2013-08-07 15:37:00,
2013-08-07 11:42:00,78.3,57.0,30.15,West,266,1.0,2.0,48,0.00,,,0.00,meteohub,2013-08-07 15:42:00,
2013-08-07 11:47:00,78.3,57.0,30.15,SW,215,1.0,2.0,48,0.00,,,0.00,meteohub,2013-08-07 15:47:00,
2013-08-07 11:52:00,76.8,54.5,30.15,East,94,1.0,3.0,46,0.00,,,0.00,meteohub,2013-08-07 15:52:00,
2013-08-07 11:57:00,75.0,55.0,30.15,SSW,195,1.0,3.0,50,0.00,,,0.00,meteohub,2013-08-07 15:57:00,
2013-08-07 12:02:00,77.0,54.7,30.14,ESE,123,2.0,4.0,46,0.00,,,0.00,meteohub,2013-08-07 16:02:00,
2013-08-07 12:07:00,76.8,52.7,30.14,East,95,1.0,4.0,43,0.00,,,0.00,meteohub,2013-08-07 16:07:00,
2013-08-07 12:12:00,76.5,52.9,30.14,NNW,347,1.0,4.0,44,0.00,,,0.00,meteohub,2013-08-07 16:12:00,
2013-08-07 12:17:00,79.2,56.7,30.14,North,355,0.0,4.0,46,0.00,,,0.00,meteohub,2013-08-07 16:17:00,
2013-08-07 12:22:00,79.9,56.7,30.14,NW,306,0.0,5.0,45,0.00,,,0.00,meteohub,2013-08-07 16:22:00,
2013-08-07 12:27:00,79.3,55.6,30.14,NW,316,0.0,5.0,44,0.00,,,0.00,meteohub,2013-08-07 16:27:00,
2013-08-07 12:32:00,78.1,54.3,30.14,SSW,213,0.0,5.0,44,0.00,,,0.00,meteohub,2013-08-07 16:32:00,
2013-08-07 12:37:00,77.9,54.3,30.14,NE,34,0.0,4.0,44,0.00,,,0.00,meteohub,2013-08-07 16:37:00,
2013-08-07 12:42:00,78.1,54.3,30.14,WNW,292,1.0,4.0,44,0.00,,,0.00,meteohub,2013-08-07 16:42:00,
2013-08-07 12:47:00,77.5,54.0,30.14,NW,304,0.0,6.0,44,0.00,,,0.00,meteohub,2013-08-07 16:47:00,
2013-08-07 12:52:00,80.2,55.8,30.14,ENE,76,0.0,6.0,43,0.00,,,0.00,meteohub,2013-08-07 16:52:00,
2013-08-07 12:57:00,78.1,55.6,30.14,WNW,283,2.0,6.0,46,0.00,,,0.00,meteohub,2013-08-07 16:57:00,
2013-08-07 13:02:00,79.2,55.9,30.14,NW,315,2.0,3.0,45,0.00,,,0.00,meteohub,2013-08-07 17:02:00,
2013-08-07 13:07:00,79.5,55.0,30.14,NNW,345,1.0,3.0,43,0.00,,,0.00,meteohub,2013-08-07 17:07:00,
2013-08-07 13:12:00,80.2,57.0,30.14,East,84,2.0,3.0,45,0.00,,,0.00,meteohub,2013-08-07 17:12:00,
2013-08-07 13:17:00,78.8,55.6,30.14,South,181,3.0,3.0,45,0.00,,,0.00,meteohub,2013-08-07 17:17:00,
2013-08-07 13:22:00,77.7,52.9,30.14,SW,229,0.0,8.0,42,0.00,,,0.00,meteohub,2013-08-07 17:22:00,
2013-08-07 13:27:00,76.5,54.7,30.14,ESE,103,0.0,8.0,47,0.00,,,0.00,meteohub,2013-08-07 17:27:00,
2013-08-07 13:32:00,79.2,55.4,30.14,ENE,58,1.0,8.0,44,0.00,,,0.00,meteohub,2013-08-07 17:32:00,
2013-08-07 13:37:00,79.5,56.3,30.14,SSW,209,0.0,5.0,45,0.00,,,0.00,meteohub,2013-08-07 17:37:00,
2013-08-07 13:42:00,80.2,57.6,30.14,WNW,286,0.0,4.0,46,0.00,,,0.00,meteohub,2013-08-07 17:42:00,
2013-08-07 13:47:00,80.1,56.1,30.14,WSW,246,0.0,4.0,44,0.00,,,0.00,meteohub,2013-08-07 17:47:00,
2013-08-07 13:52:00,79.2,54.7,30.14,ESE,107,2.0,4.0,43,0.00,,,0.00,meteohub,2013-08-07 17:52:00,
2013-08-07 13:57:00,79.3,56.8,30.13,ESE,111,0.0,4.0,46,0.00,,,0.00,meteohub,2013-08-07 17:57:00,
2013-08-07 14:02:00,79.3,56.1,30.13,SE,135,0.0,4.0,45,0.00,,,0.00,meteohub,2013-08-07 18:02:00,
2013-08-07 14:07:00,79.0,55.8,30.13,East,79,0.0,4.0,45,0.00,,,0.00,meteohub,2013-08-07 18:07:00,
2013-08-07 14:12:00,78.4,56.5,30.13,East,96,1.0,6.0,47,0.00,,,0.00,meteohub,2013-08-07 18:12:00,
2013-08-07 14:17:00,78.4,55.4,30.13,ESE,122,2.0,6.0,45,0.00,,,0.00,meteohub,2013-08-07 18:17:00,
2013-08-07 14:22:00,77.2,54.9,30.13,East,96,1.0,6.0,46,0.00,,,0.00,meteohub,2013-08-07 18:22:00,
2013-08-07 14:27:00,78.6,56.1,30.13,ESE,108,2.0,5.0,46,0.00,,,0.00,meteohub,2013-08-07 18:27:00,
2013-08-07 14:32:00,78.3,55.2,30.13,SW,235,0.0,5.0,45,0.00,,,0.00,meteohub,2013-08-07 18:32:00,
2013-08-07 14:37:00,79.0,57.6,30.13,ESE,103,1.0,3.0,48,0.00,,,0.00,meteohub,2013-08-07 18:37:00,
2013-08-07 14:42:00,78.6,54.9,30.13,ENE,61,1.0,5.0,44,0.00,,,0.00,meteohub,2013-08-07 18:42:00,
2013-08-07 14:47:00,78.4,54.7,30.13,NNW,348,0.0,7.0,44,0.00,,,0.00,meteohub,2013-08-07 18:47:00,
2013-08-07 14:52:00,78.6,56.1,30.13,ENE,59,0.0,7.0,46,0.00,,,0.00,meteohub,2013-08-07 18:52:00,
2013-08-07 14:57:00,78.1,55.0,30.12,SSE,160,1.0,7.0,45,0.00,,,0.00,meteohub,2013-08-07 18:57:00,
2013-08-07 15:02:00,78.3,55.8,30.12,East,98,0.0,3.0,46,0.00,,,0.00,meteohub,2013-08-07 19:02:00,
2013-08-07 15:07:00,78.1,55.6,30.12,SSW,198,1.0,3.0,46,0.00,,,0.00,meteohub,2013-08-07 19:07:00,
2013-08-07 15:12:00,77.7,55.9,30.12,ESE,122,0.0,5.0,47,0.00,,,0.00,meteohub,2013-08-07 19:12:00,
2013-08-07 15:17:00,78.6,56.1,30.12,South,171,2.0,5.0,46,0.00,,,0.00,meteohub,2013-08-07 19:17:00,
2013-08-07 15:22:00,77.7,55.2,30.12,South,172,1.0,5.0,46,0.00,,,0.00,meteohub,2013-08-07 19:22:00,
2013-08-07 15:27:00,78.3,55.8,30.12,ENE,76,1.0,5.0,46,0.00,,,0.00,meteohub,2013-08-07 19:27:00,
2013-08-07 15:32:00,77.2,54.9,30.12,East,95,1.0,5.0,46,0.00,,,0.00,meteohub,2013-08-07 19:32:00,
2013-08-07 15:37:00,77.2,55.4,30.12,East,94,2.0,5.0,47,0.00,,,0.00,meteohub,2013-08-07 19:37:00,
2013-08-07 15:42:00,77.4,56.7,30.12,East,99,0.0,5.0,49,0.00,,,0.00,meteohub,2013-08-07 19:42:00,
2013-08-07 15:47:00,78.1,55.6,30.12,West,269,1.0,5.0,46,0.00,,,0.00,meteohub,2013-08-07 19:47:00,
2013-08-07 15:52:00,78.1,56.8,30.12,SSE,150,2.0,3.0,48,0.00,,,0.00,meteohub,2013-08-07 19:52:00,
2013-08-07 15:57:00,77.4,55.0,30.12,East,95,1.0,5.0,46,0.00,,,0.00,meteohub,2013-08-07 19:57:00,
2013-08-07 16:02:00,77.2,55.4,30.12,NE,45,0.0,5.0,47,0.00,,,0.00,meteohub,2013-08-07 20:02:00,
2013-08-07 16:07:00,77.4,55.6,30.11,SW,214,2.0,5.0,47,0.00,,,0.00,meteohub,2013-08-07 20:07:00,
2013-08-07 16:12:00,77.5,54.5,30.11,NNW,327,0.0,5.0,45,0.00,,,0.00,meteohub,2013-08-07 20:12:00,
2013-08-07 16:17:00,76.8,54.5,30.11,SSW,197,0.0,3.0,46,0.00,,,0.00,meteohub,2013-08-07 20:17:00,
2013-08-07 16:22:00,77.9,54.9,30.11,WSW,255,0.0,3.0,45,0.00,,,0.00,meteohub,2013-08-07 20:22:00,
2013-08-07 16:27:00,78.6,54.9,30.11,NW,305,1.0,3.0,44,0.00,,,0.00,meteohub,2013-08-07 20:27:00,
2013-08-07 16:32:00,78.4,54.1,30.11,ESE,109,0.0,3.0,43,0.00,,,0.00,meteohub,2013-08-07 20:32:00,
2013-08-07 16:37:00,77.5,54.5,30.11,ESE,118,3.0,3.0,45,0.00,,,0.00,meteohub,2013-08-07 20:37:00,
2013-08-07 16:42:00,77.4,55.0,30.11,NE,47,0.0,3.0,46,0.00,,,0.00,meteohub,2013-08-07 20:42:00,
2013-08-07 16:47:00,78.3,54.5,30.11,East,92,0.0,3.0,44,0.00,,,0.00,meteohub,2013-08-07 20:47:00,
2013-08-07 16:52:00,77.4,55.0,30.10,NE,53,1.0,3.0,46,0.00,,,0.00,meteohub,2013-08-07 20:52:00,
2013-08-07 16:57:00,76.8,54.5,30.10,SE,126,0.0,3.0,46,0.00,,,0.00,meteohub,2013-08-07 20:57:00,
2013-08-07 17:02:00,76.3,55.8,30.10,South,178,0.0,4.0,49,0.00,,,0.00,meteohub,2013-08-07 21:02:00,
2013-08-07 17:07:00,76.3,56.3,30.10,NW,326,0.0,4.0,50,0.00,,,0.00,meteohub,2013-08-07 21:07:00,
2013-08-07 17:12:00,77.0,57.0,30.10,NE,54,0.0,4.0,50,0.00,,,0.00,meteohub,2013-08-07 21:12:00,
2013-08-07 17:17:00,77.2,56.5,30.10,East,97,2.0,2.0,49,0.00,,,0.00,meteohub,2013-08-07 21:17:00,
2013-08-07 17:22:00,76.5,55.9,30.10,WNW,303,1.0,3.0,49,0.00,,,0.00,meteohub,2013-08-07 21:22:00,
2013-08-07 17:27:00,75.9,56.5,30.10,ESE,118,1.0,3.0,51,0.00,,,0.00,meteohub,2013-08-07 21:27:00,
2013-08-07 17:32:00,75.6,56.1,30.10,ENE,69,0.0,3.0,51,0.00,,,0.00,meteohub,2013-08-07 21:32:00,
2013-08-07 17:37:00,75.6,56.1,30.10,NE,35,0.0,2.0,51,0.00,,,0.00,meteohub,2013-08-07 21:37:00,
2013-08-07 17:42:00,75.4,56.5,30.10,ESE,106,0.0,3.0,52,0.00,,,0.00,meteohub,2013-08-07 21:42:00,
2013-08-07 17:47:00,75.4,58.1,30.10,NE,46,0.0,3.0,55,0.00,,,0.00,meteohub,2013-08-07 21:47:00,
2013-08-07 17:52:00,75.0,56.7,30.10,ENE,69,0.0,3.0,53,0.00,,,0.00,meteohub,2013-08-07 21:52:00,
2013-08-07 17:57:00,74.8,57.6,30.10,SSE,155,0.0,2.0,55,0.00,,,0.00,meteohub,2013-08-07 21:57:00,
2013-08-07 18:02:00,74.5,57.2,30.09,ESE,102,0.0,3.0,55,0.00,,,0.00,meteohub,2013-08-07 22:02:00,
2013-08-07 18:07:00,74.5,57.2,30.10,SSE,165,0.0,3.0,55,0.00,,,0.00,meteohub,2013-08-07 22:07:00,
2013-08-07 18:12:00,74.1,56.8,30.09,North,5,1.0,3.0,55,0.00,,,0.00,meteohub,2013-08-07 22:12:00,
2013-08-07 18:17:00,73.9,57.7,30.09,North,0,1.0,3.0,57,0.00,,,0.00,meteohub,2013-08-07 22:17:00,
2013-08-07 18:22:00,73.8,57.6,30.09,North,0,0.0,3.0,57,0.00,,,0.00,meteohub,2013-08-07 22:22:00,
2013-08-07 18:27:00,73.8,57.6,30.09,SE,140,0.0,2.0,57,0.00,,,0.00,meteohub,2013-08-07 22:27:00,
2013-08-07 18:32:00,73.4,57.2,30.09,SE,140,0.0,2.0,57,0.00,,,0.00,meteohub,2013-08-07 22:32:00,
2013-08-07 18:37:00,73.2,57.6,30.09,SE,140,0.0,2.0,58,0.00,,,0.00,meteohub,2013-08-07 22:37:00,
2013-08-07 18:42:00,73.0,57.4,30.09,SE,140,0.0,1.0,58,0.00,,,0.00,meteohub,2013-08-07 22:42:00,
2013-08-07 18:47:00,73.0,58.3,30.10,SE,140,0.0,1.0,60,0.00,,,0.00,meteohub,2013-08-07 22:47:00,
2013-08-07 18:52:00,72.7,57.6,30.09,SSW,205,0.0,1.0,59,0.00,,,0.00,meteohub,2013-08-07 22:52:00,
2013-08-07 18:57:00,72.3,57.2,30.09,ENE,61,0.0,2.0,59,0.00,,,0.00,meteohub,2013-08-07 22:57:00,
2013-08-07 19:02:00,72.1,57.9,30.10,ENE,61,0.0,2.0,61,0.00,,,0.00,meteohub,2013-08-07 23:02:00,
2013-08-07 19:07:00,71.8,57.6,30.09,ENE,61,0.0,2.0,61,0.00,,,0.00,meteohub,2013-08-07 23:07:00,
2013-08-07 19:12:00,71.4,57.2,30.09,North,11,0.0,2.0,61,0.00,,,0.00,meteohub,2013-08-07 23:12:00,
2013-08-07 19:17:00,71.2,57.0,30.10,SE,136,0.0,1.0,61,0.00,,,0.00,meteohub,2013-08-07 23:17:00,
2013-08-07 19:22:00,71.1,57.4,30.10,NW,313,2.0,2.0,62,0.00,,,0.00,meteohub,2013-08-07 23:22:00,
2013-08-07 19:27:00,70.5,56.8,30.10,SE,133,0.0,3.0,62,0.00,,,0.00,meteohub,2013-08-07 23:27:00,
2013-08-07 19:32:00,70.2,57.4,30.10,SE,134,1.0,3.0,64,0.00,,,0.00,meteohub,2013-08-07 23:32:00,
2013-08-07 19:37:00,69.8,57.6,30.10,ENE,71,0.0,3.0,65,0.00,,,0.00,meteohub,2013-08-07 23:37:00,
2013-08-07 19:42:00,69.4,57.2,30.10,ESE,111,0.0,2.0,65,0.00,,,0.00,meteohub,2013-08-07 23:42:00,
2013-08-07 19:47:00,69.3,57.4,30.10,SSE,147,0.0,3.0,66,0.00,,,0.00,meteohub,2013-08-07 23:47:00,
2013-08-07 19:52:00,68.7,57.4,30.10,ESE,105,0.0,3.0,67,0.00,,,0.00,meteohub,2013-08-07 23:52:00,
2013-08-07 19:57:00,68.5,57.2,30.10,SSW,207,1.0,2.0,67,0.00,,,0.00,meteohub,2013-08-07 23:57:00,
2013-08-07 20:02:00,68.2,57.2,30.10,South,190,0.0,2.0,68,0.00,,,0.00,meteohub,2013-08-08 00:02:00,
2013-08-07 20:07:00,67.8,56.8,30.09,SSE,151,0.0,2.0,68,0.00,,,0.00,meteohub,2013-08-08 00:07:00,
2013-08-07 20:12:00,67.5,57.0,30.09,South,177,0.0,3.0,69,0.00,,,0.00,meteohub,2013-08-08 00:12:00,
2013-08-07 20:17:00,67.5,57.4,30.10,South,177,0.0,3.0,70,0.00,,,0.00,meteohub,2013-08-08 00:17:00,
2013-08-07 20:22:00,67.3,57.2,30.10,South,177,0.0,3.0,70,0.00,,,0.00,meteohub,2013-08-08 00:22:00,
2013-08-07 20:27:00,67.1,57.0,30.10,SSE,153,0.0,1.0,70,0.00,,,0.00,meteohub,2013-08-08 00:27:00,
2013-08-07 20:32:00,66.7,57.0,30.10,SSE,167,0.0,1.0,71,0.00,,,0.00,meteohub,2013-08-08 00:32:00,
2013-08-07 20:37:00,66.7,57.4,30.10,SSE,167,0.0,2.0,72,0.00,,,0.00,meteohub,2013-08-08 00:37:00,
2013-08-07 20:42:00,66.4,57.0,30.10,SE,136,0.0,2.0,72,0.00,,,0.00,meteohub,2013-08-08 00:42:00,
2013-08-07 20:47:00,66.2,57.2,30.10,SE,134,0.0,1.0,73,0.00,,,0.00,meteohub,2013-08-08 00:47:00,
2013-08-07 20:52:00,66.0,57.2,30.11,SE,134,0.0,1.0,73,0.00,,,0.00,meteohub,2013-08-08 00:52:00,
2013-08-07 20:57:00,65.8,57.4,30.11,East,100,0.0,1.0,74,0.00,,,0.00,meteohub,2013-08-08 00:57:00,
2013-08-07 21:02:00,65.7,57.6,30.11,East,100,0.0,2.0,75,0.00,,,0.00,meteohub,2013-08-08 01:02:00,
2013-08-07 21:07:00,65.8,57.7,30.11,East,100,0.0,2.0,75,0.00,,,0.00,meteohub,2013-08-08 01:07:00,
2013-08-07 21:12:00,65.8,57.7,30.11,East,100,0.0,2.0,75,0.00,,,0.00,meteohub,2013-08-08 01:12:00,
2013-08-07 21:17:00,65.7,57.6,30.10,East,100,0.0,1.0,75,0.00,,,0.00,meteohub,2013-08-08 01:17:00,
2013-08-07 21:22:00,65.7,57.9,30.10,ESE,104,0.0,1.0,76,0.00,,,0.00,meteohub,2013-08-08 01:22:00,
2013-08-07 21:27:00,65.5,58.1,30.10,ESE,104,0.0,1.0,77,0.00,,,0.00,meteohub,2013-08-08 01:27:00,
2013-08-07 21:32:00,65.7,58.3,30.10,ESE,104,0.0,1.0,77,0.00,,,0.00,meteohub,2013-08-08 01:32:00,
2013-08-07 21:37:00,65.5,58.1,30.10,ESE,108,0.0,1.0,77,0.00,,,0.00,meteohub,2013-08-08 01:37:00,
2013-08-07 21:42:00,65.5,58.1,30.10,NNW,347,0.0,1.0,77,0.00,,,0.00,meteohub,2013-08-08 01:42:00,
2013-08-07 21:47:00,65.3,58.3,30.10,South,186,0.0,4.0,78,0.00,,,0.00,meteohub,2013-08-08 01:47:00,
2013-08-07 21:52:00,65.1,58.5,30.11,South,186,0.0,4.0,79,0.00,,,0.00,meteohub,2013-08-08 01:52:00,
2013-08-07 21:57:00,65.1,58.5,30.11,ENE,67,0.0,4.0,79,0.00,,,0.00,meteohub,2013-08-08 01:57:00,
2013-08-07 22:02:00,65.3,58.6,30.12,NW,305,0.0,3.0,79,0.00,,,0.00,meteohub,2013-08-08 02:02:00,
2013-08-07 22:07:00,65.5,58.5,30.11,NW,305,0.0,3.0,78,0.00,,,0.00,meteohub,2013-08-08 02:07:00,
2013-08-07 22:12:00,65.3,58.6,30.11,South,183,0.0,3.0,79,0.00,,,0.00,meteohub,2013-08-08 02:12:00,
2013-08-07 22:17:00,64.9,58.3,30.10,ESE,107,0.0,1.0,79,0.00,,,0.00,meteohub,2013-08-08 02:17:00,
2013-08-07 22:22:00,64.8,58.5,30.10,ESE,107,0.0,1.0,80,0.00,,,0.00,meteohub,2013-08-08 02:22:00,
2013-08-07 22:32:00,64.6,58.3,30.10,NE,44,1.0,1.0,80,0.00,,,0.00,meteohub,2013-08-08 02:32:00,
2013-08-07 22:37:00,64.6,58.3,30.10,South,178,0.0,1.0,80,0.00,,,0.00,meteohub,2013-08-08 02:37:00,
2013-08-07 22:42:00,64.6,58.6,30.10,South,178,0.0,1.0,81,0.00,,,0.00,meteohub,2013-08-08 02:42:00,
2013-08-07 22:47:00,64.6,58.3,30.10,South,178,0.0,1.0,80,0.00,,,0.00,meteohub,2013-08-08 02:47:00,
2013-08-07 22:52:00,64.4,58.5,30.10,WNW,301,0.0,1.0,81,0.00,,,0.00,meteohub,2013-08-08 02:52:00,
2013-08-07 22:57:00,64.4,58.5,30.10,WNW,298,0.0,2.0,81,0.00,,,0.00,meteohub,2013-08-08 02:57:00,
2013-08-07 23:02:00,64.4,58.5,30.11,WNW,298,0.0,2.0,81,0.00,,,0.00,meteohub,2013-08-08 03:02:00,
2013-08-07 23:07:00,64.4,58.1,30.11,ENE,68,0.0,2.0,80,0.00,,,0.00,meteohub,2013-08-08 03:07:00,
2013-08-07 23:12:00,64.6,58.3,30.11,ENE,63,1.0,1.0,80,0.00,,,0.00,meteohub,2013-08-08 03:12:00,
2013-08-07 23:17:00,64.6,58.3,30.11,ENE,64,0.0,1.0,80,0.00,,,0.00,meteohub,2013-08-08 03:17:00,
2013-08-07 23:22:00,64.6,58.3,30.11,ENE,64,0.0,2.0,80,0.00,,,0.00,meteohub,2013-08-08 03:22:00,
2013-08-07 23:27:00,64.6,57.9,30.11,SE,124,0.0,2.0,79,0.00,,,0.00,meteohub,2013-08-08 03:27:00,
2013-08-07 23:32:00,64.6,57.9,30.10,SE,124,0.0,2.0,79,0.00,,,0.00,meteohub,2013-08-08 03:32:00,
2013-08-07 23:37:00,64.8,58.1,30.11,SE,124,0.0,1.0,79,0.00,,,0.00,meteohub,2013-08-08 03:37:00,
2013-08-07 23:42:00,64.6,57.9,30.10,SSW,204,0.0,2.0,79,0.00,,,0.00,meteohub,2013-08-08 03:42:00,
2013-08-07 23:47:00,64.2,57.9,30.11,NNE,25,0.0,2.0,80,0.00,,,0.00,meteohub,2013-08-08 03:47:00,
2013-08-07 23:52:00,64.4,58.1,30.11,NNE,26,1.0,2.0,80,0.00,,,0.00,meteohub,2013-08-08 03:52:00,
2013-08-07 23:57:00,64.2,57.9,30.11,NE,36,0.0,1.0,80,0.00,,,0.00,meteohub,2013-08-08 03:57:00,